Wind_Speed
6 5 4 4 4 4 4 4 3 3 4 4 4 4 4 5 5 4 5 6 6 6 7 7 8 8 9 10 10 11 11 11 12 13 13 13 13 14 14 13 12 11 10
5 4 2 2 3 3 3 3 2 3 4 4 4 4 4 4 3 4 4 4 5 5 5 6 7 7 8 9 9 9 8 9 10 11 12 12 12 13 13 13 12 11 10
3 2 1 2 2 2 2 3 3 2 3 3 3 3 3 3 3 3 3 4 4 4 4 5 5 5 6 7 8 7 8 8 9 10 10 10 11 11 10 11 11 11 11
2 1 1 1 1 2 2 3 2 2 3 3 3 2 2 3 2 3 3 3 3 4 4 4 5 5 6 6 7 7 8 8 9 8 8 8 8 8 7 8 8 8 9
1 1 1 1 1 1 2 2 2 2 2 3 2 2 2 3 2 2 2 3 4 4 4 4 4 5 5 5 6 6 7 8 8 7 7 7 7 7 6 6 7 8 9
1 1 0 0 1 1 1 2 2 2 2 2 2 2 2 3 3 2 3 4 4 4 5 5 4 5 5 5 6 6 6 7 7 6 6 6 6 6 6 6 6 6 7
2 1 1 1 1 1 1 2 2 2 2 2 2 2 2 3 3 2 3 4 4 5 5 5 5 6 6 5 5 5 5 5 5 6 5 6 6 6 6 7 6 6 6
2 2 1 0 0 1 1 1 2 2 2 2 2 2 2 2 3 3 3 4 4 5 5 5 5 6 7 5 5 5 5 5 5 6 6 6 6 6 6 6 6 6 6
2 2 1 1 1 1 1 2 2 2 2 2 2 2 2 2 3 4 4 4 4 4 5 6 6 6 7 6 5 3 4 5 6 5 6 6 6 5 5 6 6 6 6
3 2 2 1 1 0 0 1 1 2 2 2 1 1 2 2 3 3 4 4 4 4 5 6 6 6 6 7 6 5 5 5 5 5 6 6 7 7 6 5 5 5 6
3 2 2 1 1 1 1 1 1 1 1 2 2 2 2 2 3 3 4 5 5 5 5 6 6 6 6 7 7 7 6 5 5 5 5 6 6 7 7 6 7 7 7
3 3 3 2 2 1 1 1 1 1 1 2 2 2 3 3 3 4 4 4 5 5 6 6 6 6 6 6 7 7 7 7 6 6 6 6 6 7 7 7 7 8 8
4 4 3 2 2 1 1 1 1 2 2 2 2 2 3 4 3 3 4 5 5 6 6 6 6 6 6 6 7 7 7 7 7 7 7 7 7 7 8 8 8 8 9
5 4 3 2 2 1 1 1 2 2 2 2 2 3 3 3 3 4 4 5 5 6 6 6 6 6 7 7 7 7 8 8 8 8 8 9 9 9 9 10 10 10 11
6 5 4 3 3 2 2 1 1 1 2 2 2 3 4 4 4 4 4 5 6 6 6 7 7 7 7 8 8 8 8 8 9 9 10 10 11 11 10 11 11 11 12
7 7 6 5 4 3 2 2 2 2 2 2 3 4 4 5 5 5 5 6 7 7 7 7 7 8 7 8 8 9 9 9 10 10 11 11 12 13 12 13 13 14 15
8 8 7 6 5 4 3 4 4 3 3 4 4 5 5 6 6 6 6 7 8 7 8 8 8 8 8 8 9 10 10 10 11 12 12 13 13 14 15 15 15 16 17
9 8 8 7 6 5 5 4 4 4 5 5 6 6 7 7 7 7 8 8 8 8 9 9 9 9 9 9 11 11 12 12 13 13 14 15 15 16 16 17 18 18 18
10 9 9 8 7 6 6 5 6 6 6 6 7 7 8 8 8 8 8 9 9 9 10 10 10 11 11 11 12 13 14 14 14 15 16 17 17 18 19 19 20 20 20
11 10 9 9 8 7 7 6 6 6 6 7 7 8 8 8 9 9 9 9 9 10 10 11 12 12 12 13 14 15 15 16 16 16 17 18 19 20 20 21 22 22 22
11 11 10 10 9 9 8 8 7 7 7 7 8 8 9 9 9 10 10 10 11 11 12 12 13 13 14 14 15 16 17 17 18 18 18 19 20 21 22 22 23 24 25
11 10 10 10 9 10 10 9 9 9 9 10 10 10 10 10 10 11 12 12 13 13 14 14 14 15 15 16 16 17 18 18 19 20 20 21 22 23 24 25 25 26 27
10 10 10 10 10 10 11 11 11 11 11 11 11 11 12 12 13 13 13 13 14 15 15 15 16 16 16 17 18 19 20 20 21 21 22 23 24 25 26 27 27 28 30
11 11 11 11 11 12 12 12 12 13 12 12 13 13 14 14 14 14 14 14 15 16 16 16 17 17 18 19 20 21 22 22 23 24 25 26 27 27 28 28 29 30 31
13 12 12 12 13 13 13 13 14 14 14 14 14 15 15 15 15 16 16 16 16 17 17 18 19 19 20 21 22 23 24 24 25 26 27 28 28 29 30 31 32 32 33
14 14 14 13 13 13 14 14 14 14 15 15 15 16 15 15 16 16 16 17 17 18 18 19 20 21 22 23 24 25 25 26 27 28 29 29 30 31 31 32 33 34 35
Wind_Direction
280 284 280 280 296 310 313 307 310 312 310 310 306 306 316 314 310 307 296 292 294 293 288 281 273 270 271 273 277 280 278 272 269 271 276 279 280 279 275 271 265 262 260
276 271 267 279 294 310 318 321 312 311 316 314 313 312 315 319 318 313 308 301 299 296 296 285 273 272 273 273 277 279 280 273 270 273 279 282 284 282 276 268 263 264 264
284 269 281 296 302 324 342 344 342 338 335 326 322 329 324 328 346 334 321 311 307 304 304 296 287 286 283 279 280 284 283 278 280 280 284 288 289 291 283 272 263 264 262
281 262 297 321 325 339 344 339 334 333 328 330 329 332 339 343 356 351 345 341 332 322 319 311 303 303 300 288 288 287 287 282 283 284 287 290 294 298 292 280 271 268 263
276 247 260 316 332 338 339 330 331 346 342 346 347 348 350 354 3 360 355 354 350 347 341 332 321 318 313 304 297 286 284 282 281 278 286 292 296 300 295 282 284 284 273
213 210 191 5 358 356 358 355 350 11 14 10 4 7 3 5 358 1 3 358 359 360 355 352 341 333 324 306 306 293 285 284 283 282 288 296 301 303 302 302 301 297 288
191 185 142 55 43 35 29 26 20 32 30 30 17 3 5 12 4 7 9 7 7 8 2 354 347 347 339 323 323 310 292 286 290 295 291 296 304 307 309 311 314 310 303
187 182 161 121 91 70 64 40 32 35 33 32 20 9 10 12 18 14 12 8 11 11 4 357 353 354 350 343 348 327 311 299 298 305 304 296 300 302 309 312 309 309 301
187 187 180 149 124 82 73 59 48 44 40 31 31 19 9 0 1 6 6 4 357 354 357 358 355 353 354 355 0 346 332 321 313 316 312 306 308 307 311 309 301 301 307
199 204 209 196 187 162 27 33 40 39 26 20 23 3 354 359 358 355 355 353 351 352 355 356 356 354 354 358 1 4 355 341 331 324 319 314 314 316 312 308 314 317 315
209 217 219 219 241 255 276 296 304 319 321 325 332 334 333 339 351 345 344 346 347 347 347 351 352 355 351 354 354 354 354 348 338 338 333 324 323 325 328 322 319 317 314
216 223 224 230 245 251 271 298 315 321 321 322 321 319 320 327 338 335 338 343 342 340 338 342 345 345 340 346 352 352 353 353 346 343 339 335 329 326 324 323 322 321 321
218 222 230 234 235 262 273 293 328 335 327 329 332 334 327 317 323 333 336 338 338 335 333 336 337 336 337 340 345 349 351 351 345 343 338 334 329 326 325 324 323 319 318
220 223 226 232 243 264 271 284 304 330 327 332 335 333 335 333 326 326 329 334 337 336 334 333 332 329 327 329 335 341 343 343 341 340 340 336 333 327 324 323 320 318 312
226 227 231 238 246 262 276 274 307 317 318 318 333 337 338 333 326 326 325 329 329 330 327 326 328 330 328 328 329 334 338 336 334 334 333 331 330 327 322 320 315 315 315
227 229 233 242 252 260 260 254 268 278 305 311 312 317 322 322 319 321 322 323 323 323 322 324 328 333 332 331 331 330 331 330 326 325 325 324 324 324 321 316 314 314 312
230 234 233 237 244 250 256 257 260 269 282 294 303 306 311 319 317 313 314 316 318 319 319 321 324 326 327 328 329 329 327 325 323 321 320 319 318 318 318 318 317 317 313
231 232 232 237 243 247 251 254 263 273 279 289 299 303 306 308 312 310 310 312 313 313 311 313 317 317 319 319 321 323 322 320 320 319 320 320 318 317 317 316 316 315 312
234 234 236 240 243 247 250 258 264 272 280 288 295 299 302 305 308 307 310 311 310 309 308 311 311 310 309 311 314 315 315 314 313 313 314 314 314 314 315 314 314 314 311
237 235 237 238 240 242 248 257 268 275 281 289 295 301 303 303 304 307 309 312 312 311 311 310 308 306 305 307 310 312 314 312 311 311 310 310 311 311 312 312 312 312 311
237 238 238 240 241 245 249 257 267 274 279 289 294 298 301 302 303 305 308 309 309 310 310 308 307 306 305 307 309 310 312 312 310 308 308 307 308 308 309 309 309 310 310
236 239 242 241 244 249 252 258 265 271 277 285 289 293 297 300 301 301 303 303 304 306 307 306 306 305 306 306 308 310 312 312 311 309 308 308 308 307 307 307 307 308 308
236 238 242 244 246 251 256 260 266 273 278 282 285 288 293 295 296 297 299 301 301 302 303 303 304 305 305 305 308 310 310 310 310 310 309 309 309 309 308 307 307 307 307
238 241 244 248 253 257 259 262 268 275 280 281 283 286 290 292 292 293 294 296 298 300 302 303 304 305 305 305 306 307 308 308 308 308 308 308 308 308 307 307 307 307 307
239 243 248 251 254 258 262 266 272 276 277 279 282 285 288 290 290 291 293 294 296 297 299 301 303 303 304 305 305 305 306 307 307 308 307 307 306 306 307 307 307 306 306
242 247 251 255 254 256 262 268 272 275 277 279 281 284 286 290 291 293 293 294 296 298 300 302 304 305 306 306 306 305 306 307 308 307 306 306 307 307 307 306 307 306 305
Height
5866 5866 5866 5866 5866 5865 5865 5865 5864 5864 5864 5864 5863 5863 5863 5862 5862 5862 5862 5862 5862 5862 5862 5862 5862 5862 5862 5862 5861 5859 5857 5855 5858 5860 5862 5862 5861 5860 5860 5860 5860 5860 5861
5865 5865 5865 5865 5865 5865 5864 5864 5864 5864 5863 5863 5862 5862 5862 5862 5861 5861 5861 5861 5861 5861 5861 5860 5860 5861 5861 5860 5860 5859 5857 5856 5858 5859 5860 5859 5858 5856 5855 5856 5857 5858 5859
5864 5864 5864 5864 5864 5864 5864 5863 5863 5863 5863 5862 5862 5862 5861 5861 5861 5861 5861 5861 5861 5860 5860 5860 5859 5859 5859 5859 5859 5859 5858 5858 5858 5858 5858 5857 5855 5853 5851 5852 5853 5855 5856
5863 5863 5863 5864 5864 5863 5863 5863 5863 5863 5862 5862 5862 5861 5861 5861 5861 5861 5861 5861 5860 5860 5859 5859 5859 5859 5858 5858 5858 5858 5857 5857 5858 5857 5857 5856 5854 5852 5850 5850 5851 5852 5854
5862 5863 5863 5863 5863 5863 5863 5863 5862 5862 5862 5862 5861 5861 5861 5861 5861 5861 5861 5861 5860 5860 5859 5859 5858 5858 5858 5857 5857 5857 5856 5856 5856 5856 5856 5855 5854 5853 5852 5851 5851 5850 5851
5862 5862 5862 5862 5863 5863 5863 5862 5862 5862 5862 5862 5861 5861 5861 5861 5861 5861 5861 5861 5860 5860 5859 5859 5858 5858 5857 5857 5856 5855 5855 5855 5855 5855 5855 5854 5854 5853 5852 5852 5850 5848 5848
5861 5862 5862 5862 5862 5863 5862 5862 5862 5862 5862 5861 5862 5862 5861 5861 5861 5861 5861 5861 5861 5860 5860 5859 5858 5858 5857 5856 5855 5855 5854 5854 5854 5854 5854 5854 5854 5853 5852 5851 5849 5848 5847
5861 5862 5862 5862 5863 5863 5862 5863 5862 5862 5862 5862 5862 5862 5862 5863 5862 5862 5862 5861 5861 5860 5860 5859 5858 5858 5857 5856 5855 5854 5854 5854 5854 5854 5853 5853 5853 5852 5851 5850 5850 5849 5848
5861 5862 5862 5862 5863 5863 5863 5863 5863 5862 5862 5862 5862 5862 5862 5862 5862 5862 5862 5862 5861 5861 5860 5859 5859 5858 5857 5856 5855 5854 5853 5853 5853 5853 5852 5852 5852 5851 5850 5850 5849 5848 5847
5861 5861 5862 5862 5863 5863 5863 5863 5863 5863 5863 5863 5862 5862 5863 5862 5863 5862 5862 5862 5861 5861 5860 5860 5859 5858 5857 5856 5855 5854 5853 5853 5852 5852 5852 5851 5851 5850 5850 5849 5849 5848 5847
5861 5861 5862 5862 5863 5863 5863 5863 5863 5862 5863 5863 5862 5862 5862 5862 5862 5862 5862 5862 5861 5861 5860 5860 5859 5858 5857 5857 5856 5854 5853 5853 5852 5851 5851 5850 5850 5849 5849 5848 5848 5847 5846
5860 5861 5862 5862 5862 5863 5863 5863 5862 5862 5862 5862 5862 5862 5862 5862 5862 5862 5862 5862 5861 5861 5860 5859 5859 5858 5857 5857 5856 5855 5854 5853 5852 5851 5850 5850 5849 5849 5848 5847 5846 5846 5845
5860 5861 5861 5862 5862 5862 5862 5862 5862 5862 5862 5862 5862 5862 5862 5862 5862 5862 5861 5861 5861 5860 5860 5859 5858 5858 5857 5856 5856 5855 5854 5853 5852 5851 5850 5849 5849 5848 5847 5846 5845 5844 5843
5859 5860 5861 5861 5861 5862 5862 5862 5862 5862 5862 5862 5862 5862 5862 5862 5861 5861 5861 5861 5860 5860 5859 5859 5858 5857 5856 5856 5855 5854 5853 5852 5851 5851 5850 5849 5848 5847 5846 5845 5844 5843 5841
5858 5859 5860 5860 5861 5861 5861 5861 5862 5862 5862 5862 5862 5862 5862 5861 5861 5861 5860 5860 5860 5859 5859 5858 5857 5856 5855 5855 5854 5853 5852 5851 5851 5850 5849 5848 5847 5846 5844 5843 5842 5840 5839
5857 5858 5859 5860 5860 5860 5861 5861 5861 5861 5861 5861 5862 5861 5861 5861 5860 5860 5859 5859 5858 5858 5857 5857 5856 5855 5854 5854 5853 5852 5851 5850 5849 5848 5847 5846 5845 5844 5842 5841 5839 5838 5836
5855 5857 5857 5858 5859 5860 5860 5860 5861 5861 5861 5861 5861 5861 5860 5860 5859 5859 5858 5857 5857 5856 5856 5855 5855 5854 5853 5853 5852 5851 5850 5849 5848 5847 5845 5844 5843 5841 5840 5838 5836 5835 5833
5854 5855 5856 5857 5858 5859 5859 5860 5860 5860 5860 5860 5860 5860 5859 5859 5858 5857 5857 5856 5855 5855 5854 5854 5853 5853 5852 5851 5850 5849 5848 5847 5846 5844 5843 5842 5840 5838 5837 5835 5833 5831 5829
5852 5853 5855 5856 5857 5857 5858 5858 5859 5859 5859 5859 5859 5859 5858 5857 5857 5856 5855 5854 5853 5853 5852 5852 5851 5851 5850 5849 5848 5847 5846 5845 5843 5842 5840 5839 5837 5835 5833 5831 5829 5827 5825
5850 5851 5853 5854 5855 5856 5856 5857 5857 5858 5858 5858 5857 5857 5857 5856 5855 5854 5854 5853 5852 5851 5850 5850 5849 5849 5848 5847 5846 5845 5843 5842 5840 5839 5837 5835 5833 5831 5829 5827 5825 5822 5820
5848 5849 5851 5852 5853 5854 5854 5855 5856 5856 5856 5856 5856 5855 5855 5854 5853 5853 5852 5851 5850 5849 5849 5848 5847 5846 5845 5844 5843 5841 5840 5838 5837 5835 5833 5831 5829 5827 5825 5822 5820 5817 5814
5846 5847 5848 5850 5851 5852 5852 5853 5854 5854 5854 5854 5854 5854 5853 5852 5851 5851 5850 5849 5848 5847 5846 5845 5844 5843 5842 5841 5839 5838 5836 5835 5833 5831 5829 5827 5824 5822 5819 5817 5814 5811 5808
5843 5845 5846 5847 5848 5849 5850 5851 5851 5851 5852 5852 5851 5851 5850 5850 5849 5848 5847 5846 5845 5844 5843 5842 5841 5840 5838 5837 5836 5834 5832 5830 5828 5826 5824 5821 5819 5816 5813 5810 5807 5804 5801
5841 5842 5844 5845 5846 5847 5847 5848 5848 5848 5849 5849 5848 5848 5847 5847 5846 5845 5844 5843 5842 5841 5840 5838 5837 5835 5834 5832 5831 5829 5827 5825 5823 5820 5818 5815 5812 5809 5806 5803 5800 5797 5793
5838 5839 5841 5842 5843 5844 5844 5845 5845 5845 5845 5845 5845 5844 5844 5843 5842 5841 5840 5839 5838 5837 5836 5834 5833 5831 5829 5827 5825 5824 5822 5819 5817 5814 5811 5808 5806 5802 5799 5796 5792 5788 5785
5835 5836 5837 5838 5839 5840 5841 5841 5842 5842 5842 5842 5841 5841 5840 5839 5838 5837 5836 5835 5834 5833 5831 5830 5828 5826 5824 5822 5820 5817 5815 5813 5810 5807 5804 5801 5798 5795 5792 5788 5784 5780 5776